This is the latest recevied weather packets stored in our database for station/object DL7AND-1. If no packets are shown the sender has not sent any weather packets the latest 10 day(s).
| Time | Temp. | Humidity | Pressure | Rain* | Wind** | Luminosity | Snow |
|---|---|---|---|---|---|---|---|
| 1777715790 | 24.44° C | - | 1012.1 hPa | 0 mm | - | - | - |
| 1777712817 | 23.33° C | - | 1012.6 hPa | 0 mm | - | - | - |
| 1777708590 | 21.67° C | - | 1013 hPa | 0 mm | - | - | - |
| 1777706817 | 20.56° C | - | 1013.2 hPa | 0 mm | - | - | - |
| 1777703502 | 20.56° C | - | 1013.5 hPa | 0 mm | - | - | - |
| 1777701390 | 22.78° C | - | 1013.7 hPa | 0 mm | - | - | - |
| 1777698990 | 22.78° C | - | 1013.6 hPa | 0 mm | - | - | - |
| 1777698462 | 22.22° C | - | 1013.6 hPa | 0 mm | - | - | - |
| 1777697217 | 20° C | - | 1013.6 hPa | 0 mm | - | - | - |
| 1777687950 | 15.56° C | - | 1014 hPa | 0 mm | - | - | - |
| 1777686417 | 15.56° C | - | 1014.1 hPa | 0 mm | - | - | - |
| 1777685502 | 15.56° C | - | 1014.3 hPa | 0 mm | - | - | - |
| 1777684966 | 15.56° C | - | 1014.4 hPa | 0 mm | - | - | - |
| 1777679838 | 16.11° C | - | 1014.8 hPa | 0 mm | - | - | - |
| 1777679262 | 16.67° C | - | 1014.8 hPa | 0 mm | - | - | - |
| 1777669617 | 18.33° C | - | 1015.2 hPa | 0 mm | - | - | - |
| 1777668702 | 18.89° C | - | 1015.4 hPa | 0 mm | - | - | - |
| 1777668057 | 18.89° C | - | 1015.4 hPa | 0 mm | - | - | - |
| 1777664811 | 20° C | - | 1015.5 hPa | 0 mm | - | - | - |
| 1777661210 | 21.11° C | - | 1015.7 hPa | 0 mm | - | - | - |
| 1777659098 | 21.67° C | - | 1015.6 hPa | 0 mm | - | - | - |
| 1777658522 | 21.67° C | - | 1015.4 hPa | 0 mm | - | - | - |
| 1777654298 | 22.78° C | - | 1015.7 hPa | 0 mm | - | - | - |
| 1777653722 | 22.78° C | - | 1015.7 hPa | 0 mm | - | - | - |
| 1777651610 | 22.78° C | - | 1016 hPa | 0 mm | - | - | - |
* Rain latest hour (hover to see other rain measurements)
** Current wind speed in m/s (hover to see current wind gust speed)